Vertical_Velocity
-1 -1 -1 -1 -1 -0 -0 -1 -1 -1 -1 1 4 5 4 4 2 1 -0 -0 -1 -2 -2 -2 -1 1 1 1 3 6 8 7 3 1 -0 0 2 4 4 4 2 0 -0 -0 1 2 3 4 4 4 4 3 3 2 2 1 2 2 2 2 2 2 2 2 1 1 0 0 1
-1 -1 -1 -1 -1 -0 -0 -0 -1 -1 -1 -0 1 2 2 3 2 1 0 -0 -1 -1 -1 -2 -1 -0 1 2 5 8 9 9 5 2 0 -0 2 3 4 4 2 -0 -1 -1 -1 -0 1 2 2 2 2 2 2 1 0 0 0 0 1 1 1 1 1 0 0 0 -0 0 1
-0 -0 -0 -0 -0 -0 -0 0 -0 -1 -1 -0 0 0 0 0 2 3 4 3 1 0 -1 -2 -2 -1 -0 2 6 7 7 5 2 -0 -2 -2 0 2 3 4 2 0 -0 -0 -1 -1 -1 -0 0 1 1 1 1 1 0 0 -0 -0 -0 0 0 0 -0 -0 -0 -0 -0 -1 -0
-0 0 0 0 -0 -0 -0 0 0 -0 -0 -0 0 0 0 -0 0 3 6 7 4 2 1 0 -1 -1 -0 3 5 6 4 1 -1 -3 -3 -3 -2 0 2 3 2 2 2 3 3 2 2 1 1 0 0 0 0 0 0 -0 -0 -0 -0 0 0 -0 -0 -0 -0 -1 -1 -1 -0
-0 0 0 0 -0 -0 -0 0 0 0 0 1 1 1 1 0 0 2 4 5 5 4 3 3 2 1 1 4 5 4 3 0 -0 -1 -2 -3 -2 -0 1 2 1 2 3 5 6 7 6 4 3 2 1 0 -0 -0 -0 -0 -1 -1 -0 0 -0 -0 -0 -0 -0 -1 -1 -1 -1
-0 -0 0 -0 -0 -0 -0 -0 0 0 1 1 1 1 1 1 3 6 9 9 7 5 4 4 4 4 4 5 5 4 2 1 1 1 0 -1 -1 -1 0 1 1 2 4 6 7 8 7 6 4 3 2 1 0 -0 -0 -1 -1 -1 -1 -1 -0 -0 -0 -0 -0 -1 -1 -1 -1
-1 -0 -0 -0 -0 -0 -0 -0 0 0 0 0 0 0 0 1 3 7 11 14 10 7 4 4 5 6 7 6 4 3 1 1 0 -0 -1 -2 -1 -0 1 2 3 4 5 6 8 8 8 7 6 4 4 2 1 1 -0 -1 -1 -1 -1 -1 -0 -0 -0 -0 -0 -1 -1 -2 -2
-1 -0 -0 -0 -0 -0 -0 -0 -0 0 0 0 -0 -0 -0 0 2 3 4 6 6 4 3 3 4 5 6 7 4 1 -0 -0 -2 -2 -3 -2 -1 1 3 5 5 6 6 6 7 8 8 8 7 6 5 4 3 2 1 -0 -1 -1 -1 -1 -1 -1 -1 -0 -0 -1 -1 -1 -1
-1 -1 -0 -0 -0 -0 -0 -0 -0 0 0 0 -0 -0 -0 -0 0 -0 -1 -1 -0 0 1 2 3 4 4 6 4 2 0 -1 -2 -3 -3 -2 -0 2 4 6 6 7 7 7 6 5 5 6 6 6 6 5 4 3 2 0 -0 -1 -1 -1 -1 -1 -1 -1 -0 0 1 1 2
-1 -1 -1 -0 -0 -1 -1 -1 -0 -0 0 0 -0 -0 -0 0 0 -0 -1 -1 -1 -0 0 1 1 2 3 3 4 3 2 1 -0 -1 -1 -1 0 2 3 3 5 6 7 7 5 3 1 1 2 4 5 5 5 4 2 1 -0 -1 -1 -1 -2 -2 -2 -1 -1 0 2 4 5
-2 -2 -1 -1 -1 -1 -1 -1 -0 -0 0 0 0 0 0 1 1 0 0 -0 0 0 -0 -0 1 1 1 1 2 2 3 2 2 1 1 1 2 2 1 0 1 3 4 6 6 4 2 -0 -0 1 2 3 4 3 2 1 0 -0 -1 -1 -1 -2 -2 -1 -1 -1 0 3 5
-2 -1 -1 -1 -0 -0 -0 -0 -0 -0 0 0 0 0 0 1 0 0 0 0 0 -0 -0 -0 0 0 1 0 0 1 1 2 2 3 3 3 3 3 2 1 1 1 2 3 3 3 2 0 -1 -1 -0 0 2 2 2 2 1 0 -0 -0 -0 -1 -1 -1 -1 -1 0 3 4
-1 -0 -0 -0 0 0 0 0 0 0 0 0 0 0 0 0 0 0 0 0 0 -0 -0 -1 -0 0 1 1 1 1 1 2 2 3 3 4 4 5 5 5 5 4 2 1 -0 -0 -1 -1 -2 -2 -2 -2 -1 0 1 2 1 1 0 0 -0 -1 -1 -1 -1 0 3 6 6
0 0 0 0 1 1 1 1 0 0 0 0 -0 -0 -0 -0 -0 0 0 0 0 -0 -0 -1 -0 1 2 2 2 1 1 2 2 3 3 4 5 6 6 7 7 6 5 3 1 1 0 0 -1 -1 -2 -2 -2 -1 0 1 1 1 1 0 -1 -1 -1 0 2 4 7 8 7
-0 0 0 1 1 1 0 0 0 0 -0 -0 -0 -0 -0 -0 -0 -0 0 0 0 -0 -0 -0 0 1 1 2 2 2 2 2 3 4 5 6 7 8 8 8 8 8 7 6 6 6 6 6 4 3 1 0 -0 -0 0 0 1 1 0 -0 -1 -1 0 3 6 8 9 8 6
-0 -0 0 0 0 0 0 0 -0 -0 -1 -1 -1 -1 -1 -1 -0 -0 -0 0 0 0 0 1 1 1 1 1 1 2 3 5 7 8 8 8 9 9 8 8 8 8 7 7 7 7 7 7 6 5 4 3 3 3 2 2 2 1 0 -1 -1 -1 1 4 6 7 7 6 5
-0 -0 -0 0 0 0 -0 -0 -1 -1 -1 -1 -1 -1 -1 -1 -1 -0 -0 0 0 1 1 1 1 1 1 0 0 1 3 5 7 7 7 7 7 6 6 6 6 5 5 5 4 4 4 4 4 3 2 2 2 3 4 3 2 1 0 -0 -1 -0 1 4 4 4 4 3 3
-0 -0 -0 0 0 0 -0 -0 -0 -1 -1 -1 -1 -1 -1 -1 -0 -0 -0 0 0 1 1 1 1 1 0 0 -0 -0 0 1 2 3 3 3 2 2 2 2 2 2 2 1 1 0 0 0 0 0 0 0 0 1 2 2 2 1 1 0 1 2 3 4 3 2 2 3 3
-0 -0 -0 0 0 0 0 0 -0 -0 -0 -0 -0 -0 -0 -0 -0 -0 0 0 0 0 0 0 0 0 0 0 0 0 0 0 0 0 0 0 0 0 0 0 -0 -0 -0 -0 -1 -1 -1 -1 -1 -0 -0 -0 -0 0 1 1 1 1 1 2 3 4 5 5 3 2 2 2 3
0 0 -0 -0 0 0 0 0 1 1 1 0 0 0 0 0 0 0 0 0 0 0 0 0 0 0 0 0 0 1 1 1 1 1 1 0 0 -0 -0 -0 -0 -1 -1 -1 -1 -1 -1 -1 -1 -1 -0 0 1 1 2 2 2 2 3 4 4 5 5 4 2 1 0 0 1
0 0 -0 -0 0 0 0 0 1 1 1 0 0 0 0 0 0 0 0 0 0 0 0 0 0 0 0 0 0 1 1 1 1 1 1 0 0 -0 -0 -1 -1 -1 -1 -1 -1 -1 -1 -1 -1 -1 -0 0 1 1 2 2 2 3 3 3 4 3 3 1 -0 -1 -2 -1 -1
0 -0 -0 -0 -0 -0 0 0 0 0 -0 -0 -0 -0 -0 -0 -0 -0 -0 -0 0 0 0 -0 -0 -0 -0 -0 -0 0 0 0 0 0 -0 -0 -0 -1 -1 -1 -1 -1 -1 -1 -1 -1 -1 -1 -1 -0 -0 -0 -0 -0 -0 0 1 1 1 2 1 1 0 -1 -2 -2 -2 -2 -2
0 -0 -0 -0 -0 -0 -0 -0 -0 -0 -1 -1 -1 -1 -1 -1 -1 -1 -1 -1 -1 -1 -1 -1 -1 -1 -1 -1 -1 -1 -1 -1 -1 -1 -1 -1 -1 -1 -1 -1 -1 -1 -1 -1 -1 -1 -1 -1 -0 -0 -1 -1 -1 -1 -1 -1 -0 -0 0 0 0 -0 -1 -2 -2 -2 -2 -3 -3
0 -0 -0 -0 -0 -0 -0 -1 -1 -1 -1 -1 -1 -1 -1 -2 -2 -2 -2 -2 -2 -2 -2 -2 -2 -2 -2 -2 -2 -3 -3 -2 -2 -2 -2 -2 -2 -1 -1 -1 -1 -1 -1 -1 -1 -1 -1 -1 -1 -1 -1 -1 -2 -2 -1 -1 -1 -0 -0 0 0 0 -0 -1 -1 -2 -2 -2 -2
0 -0 -0 -0 -0 -0 -0 -1 -1 -1 -2 -2 -2 -2 -2 -2 -2 -2 -2 -2 -2 -3 -3 -3 -3 -3 -3 -3 -3 -3 -3 -2 -2 -2 -2 -2 -2 -1 -1 -1 -1 -1 -1 -1 -1 -1 -1 -1 -1 -1 -2 -2 -2 -2 -1 -1 -1 -1 -1 -1 -0 0 1 0 0 -0 -1 -1 -1
0 0 -0 -0 -0 -0 -0 -0 -1 -1 -2 -2 -2 -2 -1 -1 -1 -2 -2 -2 -2 -2 -2 -3 -3 -3 -3 -3 -3 -2 -2 -2 -2 -1 -1 -1 -1 -1 -1 -1 -1 -1 -1 -1 -1 -1 -1 -1 -1 -1 -2 -2 -2 -1 -1 -1 -1 -2 -2 -2 -2 -1 -0 0 0 0 0 -0 -0
1 0 0 -0 0 -0 -0 -1 -1 -1 -1 -1 -1 -1 -1 -1 -1 -1 -1 -2 -2 -2 -2 -2 -2 -2 -2 -2 -2 -2 -2 -1 -1 -1 -1 -1 -1 -1 -1 -1 -1 -1 -1 -1 -1 -1 -1 -1 -1 -1 -1 -1 -1 -1 -1 -2 -2 -2 -3 -3 -3 -2 -2 -1 -1 -1 -1 -1 -2
1 1 0 0 0 -0 -0 -0 -0 -0 -1 -1 -1 -1 -1 -1 -1 -1 -2 -2 -2 -1 -1 -1 -2 -2 -1 -1 -1 -1 -1 -1 -1 -1 -1 -2 -2 -2 -2 -2 -2 -1 -1 -1 -1 -1 -1 -1 -1 -1 -1 -1 -1 -1 -1 -2 -2 -3 -3 -3 -4 -4 -4 -4 -4 -4 -4 -4 -4
1 1 1 1 0 0 -0 -0 -0 -0 -0 -0 -0 -0 -1 -1 -1 -1 -2 -2 -2 -1 -1 -1 -2 -1 -1 -1 -2 -2 -2 -1 -1 -1 -1 -2 -2 -2 -2 -2 -1 -1 -1 -0 -0 -0 -0 -0 -0 -0 -0 0 0 -0 -1 -1 -2 -2 -3 -4 -4 -5 -5 -6 -6 -6 -5 -5 -4
1 1 1 1 0 0 0 0 0 0 0 0 0 -0 -0 -1 -1 -1 -2 -2 -1 -1 -2 -2 -2 -1 -1 -2 -2 -2 -2 -2 -1 -1 -1 -1 -2 -2 -2 -1 -1 -0 0 1 1 1 1 1 1 1 1 1 1 0 -0 -1 -2 -3 -3 -4 -4 -3 -3 -3 -2 -2 -1 -0 0
1 1 1 1 1 0 0 0 1 1 1 1 1 0 -0 -0 -1 -1 -1 -1 -1 -1 -1 -2 -2 -2 -2 -2 -1 -1 -1 -1 -1 -1 -1 -1 -1 -1 -1 -0 -0 0 1 1 2 2 1 1 0 0 0 0 -0 -0 -1 -2 -3 -3 -3 -2 -1 0 1 2 2 2 2 2 1
1 1 1 1 0 0 0 1 1 1 1 1 1 1 0 -0 -0 -0 -0 -0 -0 -1 -1 -1 -1 -2 -1 -1 -1 -1 -1 -1 -1 -1 -1 -1 -1 -1 -0 0 1 1 1 1 1 1 0 0 -0 -1 -1 -1 -2 -3 -4 -4 -4 -3 -1 0 1 1 2 2 2 1 -0 -1 -1
1 1 1 0 -0 -0 -0 0 1 1 2 2 1 1 1 1 1 1 1 1 0 -0 -1 -1 -1 -1 -1 -1 -1 -1 -1 -1 -1 -1 -1 -1 -0 0 1 2 2 2 1 1 1 0 -0 -0 -1 -1 -2 -2 -3 -4 -5 -5 -3 -1 1 2 1 0 -0 -0 -1 -1 -2 -2 -2
1 1 1 0 -0 -0 -0 -0 1 1 2 2 1 1 1 1 1 1 1 1 0 -0 -0 -0 -0 -0 -0 -1 -1 -1 -1 -1 -1 -0 0 1 2 3 4 4 4 3 2 1 1 0 -0 -1 -2 -2 -3 -3 -4 -4 -4 -3 -0 2 2 1 0 -0 -0 -0 -0 -0 -0 -0 -0
2 2 1 1 0 -0 -0 -0 0 1 1 1 1 0 0 1 1 1 0 0 1 0 0 0 0 0 -0 -0 -1 -1 -0 -0 1 2 3 4 4 5 6 6 5 4 3 2 1 -0 -1 -1 -2 -3 -3 -3 -3 -2 -1 1 2 2 2 1 0 0 1 1 1 1 1 1 0
1 1 1 1 0 0 -0 -0 -0 0 0 1 0 -0 -0 -0 -0 -0 -0 0 0 1 0 0 0 0 0 0 0 1 2 2 3 3 4 4 4 5 5 6 5 4 2 2 1 0 -0 -1 -2 -2 -3 -2 -1 -0 1 2 2 2 1 1 1 1 1 1 1 1 1 0 0
2 1 1 1 1 0 0 -0 -0 -0 -0 -0 -0 -1 -1 -1 -1 -1 -1 -1 -0 -0 -0 0 1 1 1 2 2 3 3 4 3 3 2 2 2 3 4 4 4 3 3 2 2 1 0 -0 -1 -0 -0 0 1 1 2 2 2 2 2 2 2 2 2 1 1 1 0 0 0
7 6 4 1 1 0 0 0 -0 -0 -0 -1 -1 -1 -2 -2 -2 -2 -2 -1 -1 -1 -1 -0 0 0 0 1 2 2 3 2 2 2 1 1 1 2 3 4 4 3 2 2 2 1 0 0 1 2 3 4 3 3 3 3 3 3 3 3 3 3 2 2 2 1 1 1 1
10 10 9 5 2 0 -0 -0 -0 -1 -1 -2 -2 -2 -2 -2 -2 -2 -2 -1 -1 -1 -1 -1 -2 -2 -2 -1 -0 -0 -0 -0 -0 0 1 1 1 2 3 3 3 2 1 -0 -1 -1 -1 -1 1 3 4 4 4 4 4 4 5 4 4 4 4 3 3 2 2 2 1 1 1
8 9 8 6 2 -0 -1 -1 -1 -2 -2 -2 -2 -2 -2 -2 -2 -1 -0 0 0 0 -1 -2 -3 -3 -3 -3 -2 -2 -2 -2 -2 -1 -1 -0 -0 0 1 2 1 0 -1 -3 -3 -4 -4 -3 -2 -0 1 2 2 3 3 4 4 3 3 3 3 2 2 1 1 1 1 1 1
1 2 3 2 -0 -1 -2 -2 -3 -3 -4 -4 -3 -2 -1 -1 -1 0 1 1 1 0 -0 -1 -2 -2 -2 -2 -1 -1 -1 -3 -3 -2 -2 -1 -2 -1 -1 -0 -0 -1 -3 -5 -6 -6 -4 -3 -2 -1 0 1 1 1 1 1 0 -0 -0 0 1 2 2 1 2 5 8 10 5
Height
5672 5672 5671 5671 5671 5671 5671 5672 5672 5672 5672 5673 5673 5673 5673 5673 5673 5674 5674 5675 5676 5677 5678 5680 5681 5683 5684 5685 5686 5688 5689 5690 5691 5691 5692 5693 5694 5695 5695 5696 5696 5697 5697 5698 5699 5700 5700 5701 5702 5702 5703 5703 5704 5705 5707 5708 5708 5708 5709 5710 5711 5712 5713 5713 5714 5715 5716 5717 5718
5671 5671 5670 5670 5670 5670 5670 5670 5670 5671 5671 5671 5672 5672 5672 5672 5672 5673 5673 5674 5674 5676 5678 5679 5680 5682 5683 5683 5684 5685 5686 5688 5689 5690 5690 5691 5692 5693 5694 5694 5695 5695 5696 5696 5697 5698 5699 5699 5700 5701 5702 5703 5704 5704 5705 5706 5706 5707 5707 5708 5709 5710 5711 5712 5713 5713 5714 5715 5716
5670 5670 5669 5669 5669 5669 5669 5669 5669 5669 5670 5670 5670 5670 5671 5671 5671 5672 5672 5673 5673 5674 5676 5677 5678 5679 5680 5681 5682 5683 5684 5685 5687 5688 5688 5689 5691 5692 5693 5693 5693 5694 5694 5695 5696 5697 5698 5698 5699 5700 5701 5702 5703 5703 5704 5704 5705 5705 5706 5707 5708 5708 5709 5710 5711 5711 5712 5713 5714
5669 5668 5668 5668 5668 5668 5668 5668 5668 5668 5669 5669 5669 5669 5669 5670 5670 5671 5672 5673 5673 5673 5674 5676 5677 5678 5679 5679 5680 5681 5683 5684 5684 5685 5686 5688 5689 5690 5691 5691 5692 5692 5693 5694 5695 5696 5697 5698 5698 5699 5700 5701 5701 5702 5703 5703 5703 5704 5705 5705 5706 5707 5708 5708 5709 5710 5710 5711 5712
5668 5667 5667 5667 5667 5667 5667 5667 5667 5667 5668 5668 5668 5668 5668 5668 5669 5670 5671 5671 5672 5673 5673 5674 5675 5677 5678 5678 5679 5680 5682 5683 5683 5683 5684 5686 5687 5688 5689 5689 5690 5690 5692 5693 5694 5695 5696 5697 5697 5698 5699 5699 5700 5701 5701 5702 5702 5703 5703 5704 5704 5705 5706 5707 5707 5708 5709 5709 5710
5666 5666 5666 5666 5666 5666 5666 5666 5666 5666 5666 5666 5667 5667 5667 5668 5669 5671 5672 5671 5671 5671 5672 5673 5674 5675 5676 5677 5678 5679 5680 5681 5681 5682 5683 5684 5685 5686 5687 5687 5688 5689 5690 5692 5693 5694 5695 5696 5696 5697 5698 5698 5699 5699 5700 5700 5701 5701 5702 5703 5703 5703 5704 5705 5706 5706 5707 5708 5708
5665 5665 5665 5665 5665 5665 5664 5664 5664 5664 5665 5665 5665 5665 5666 5667 5668 5669 5671 5671 5671 5671 5671 5671 5672 5673 5674 5676 5677 5678 5678 5679 5679 5680 5681 5682 5683 5684 5685 5686 5687 5688 5689 5690 5691 5693 5693 5694 5695 5695 5696 5697 5697 5698 5698 5699 5699 5700 5700 5701 5702 5702 5703 5703 5704 5705 5705 5706 5707
5663 5663 5663 5663 5663 5663 5663 5663 5663 5663 5663 5663 5664 5664 5664 5665 5666 5668 5668 5669 5669 5669 5669 5670 5670 5671 5672 5673 5674 5676 5677 5677 5678 5678 5679 5680 5681 5683 5684 5685 5686 5687 5688 5689 5690 5691 5692 5693 5693 5694 5694 5695 5696 5696 5697 5697 5698 5698 5699 5700 5700 5701 5701 5702 5702 5703 5703 5704 5705
5662 5662 5662 5662 5662 5662 5662 5662 5662 5662 5662 5662 5663 5663 5663 5663 5664 5665 5666 5666 5666 5667 5668 5668 5668 5669 5670 5671 5672 5673 5674 5675 5676 5677 5678 5679 5680 5681 5683 5683 5684 5685 5686 5688 5688 5689 5690 5691 5691 5692 5693 5693 5694 5695 5695 5695 5696 5697 5697 5698 5698 5699 5699 5700 5700 5701 5701 5702 5703
5661 5661 5661 5661 5661 5661 5661 5661 5661 5661 5661 5661 5661 5661 5661 5662 5663 5663 5663 5664 5664 5665 5666 5667 5667 5668 5668 5669 5670 5671 5672 5673 5674 5675 5676 5677 5678 5679 5680 5682 5683 5684 5685 5686 5687 5687 5688 5688 5689 5690 5691 5692 5692 5693 5693 5693 5694 5694 5695 5696 5696 5697 5697 5697 5698 5699 5699 5700 5700
5659 5659 5659 5660 5660 5660 5660 5660 5660 5660 5660 5660 5660 5660 5660 5660 5661 5661 5661 5662 5663 5663 5664 5665 5666 5666 5667 5668 5668 5669 5671 5672 5673 5673 5674 5675 5676 5677 5678 5679 5681 5682 5683 5684 5685 5686 5686 5687 5687 5688 5689 5689 5690 5690 5691 5691 5692 5692 5693 5693 5694 5694 5695 5695 5696 5697 5697 5698 5698
5658 5658 5658 5658 5658 5658 5659 5659 5659 5659 5659 5659 5659 5659 5659 5659 5659 5659 5660 5661 5661 5662 5663 5664 5665 5665 5666 5666 5667 5668 5669 5670 5671 5672 5672 5673 5674 5675 5676 5677 5678 5680 5681 5682 5683 5683 5684 5684 5685 5686 5686 5687 5688 5688 5688 5689 5689 5690 5690 5691 5691 5692 5692 5693 5694 5694 5695 5696 5696
5657 5657 5657 5657 5658 5658 5658 5658 5658 5658 5658 5658 5658 5658 5658 5658 5658 5658 5659 5659 5660 5661 5661 5662 5663 5664 5664 5665 5666 5667 5668 5668 5669 5670 5671 5672 5673 5673 5674 5676 5677 5678 5679 5679 5680 5680 5681 5682 5683 5683 5683 5684 5685 5686 5686 5687 5687 5688 5688 5688 5689 5689 5690 5691 5692 5692 5693 5693 5694
5656 5656 5656 5656 5656 5657 5657 5657 5657 5657 5657 5657 5657 5657 5657 5657 5657 5657 5658 5658 5659 5659 5660 5661 5661 5662 5663 5663 5664 5665 5666 5667 5668 5669 5670 5670 5671 5672 5673 5674 5675 5676 5677 5677 5678 5678 5679 5680 5680 5681 5681 5682 5682 5683 5684 5684 5685 5685 5686 5686 5687 5687 5688 5689 5689 5689 5690 5691 5692
5655 5655 5655 5655 5655 5656 5656 5656 5656 5656 5656 5656 5656 5656 5656 5656 5656 5656 5657 5657 5658 5658 5659 5659 5660 5661 5662 5662 5663 5664 5665 5666 5667 5668 5668 5669 5670 5671 5672 5673 5673 5674 5675 5675 5675 5676 5677 5677 5678 5678 5679 5679 5680 5681 5681 5682 5683 5683 5683 5684 5684 5685 5686 5686 5687 5687 5688 5689 5689
5654 5654 5654 5654 5654 5654 5654 5655 5655 5655 5655 5654 5654 5655 5655 5655 5655 5655 5656 5657 5657 5658 5658 5659 5659 5660 5661 5661 5662 5663 5664 5666 5667 5667 5668 5668 5668 5669 5670 5671 5671 5672 5672 5673 5673 5673 5674 5675 5675 5676 5676 5677 5678 5678 5678 5679 5679 5680 5681 5681 5682 5683 5683 5683 5684 5685 5686 5687 5687
5652 5653 5653 5653 5653 5653 5653 5653 5653 5653 5653 5653 5653 5654 5654 5654 5654 5655 5655 5656 5656 5657 5658 5658 5659 5659 5660 5661 5662 5662 5663 5664 5665 5665 5666 5666 5666 5667 5667 5668 5668 5669 5669 5670 5670 5671 5672 5672 5673 5673 5674 5674 5675 5676 5676 5676 5677 5677 5678 5679 5679 5680 5680 5681 5682 5682 5683 5684 5684
5651 5651 5652 5652 5652 5652 5652 5652 5652 5652 5653 5653 5653 5653 5653 5653 5653 5654 5654 5655 5655 5656 5657 5657 5658 5658 5659 5660 5660 5661 5661 5662 5663 5663 5663 5664 5664 5665 5665 5665 5666 5667 5667 5668 5668 5669 5669 5670 5670 5670 5671 5672 5673 5673 5673 5674 5674 5675 5675 5676 5676 5677 5678 5678 5678 5679 5680 5680 5681
5650 5650 5650 5650 5651 5651 5651 5651 5651 5651 5652 5652 5652 5652 5652 5653 5653 5653 5653 5654 5654 5655 5655 5656 5656 5657 5658 5658 5658 5659 5659 5660 5661 5661 5662 5662 5663 5663 5663 5664 5664 5665 5665 5665 5666 5666 5667 5667 5668 5668 5669 5669 5670 5671 5671 5672 5672 5672 5673 5673 5673 5674 5674 5675 5675 5676 5676 5677 5678
5648 5649 5649 5649 5649 5650 5650 5650 5650 5651 5651 5651 5651 5651 5652 5652 5652 5653 5653 5653 5653 5654 5654 5655 5655 5656 5656 5657 5657 5658 5658 5659 5659 5660 5660 5661 5661 5662 5662 5662 5663 5663 5663 5663 5664 5664 5665 5665 5665 5666 5667 5667 5668 5668 5669 5669 5670 5670 5670 5671 5671 5671 5672 5672 5672 5673 5673 5674 5675
5647 5648 5648 5648 5648 5649 5649 5649 5649 5650 5650 5650 5650 5651 5651 5651 5652 5652 5652 5652 5653 5653 5653 5654 5654 5655 5655 5656 5656 5657 5657 5658 5658 5658 5659 5659 5660 5660 5661 5661 5661 5661 5662 5662 5662 5662 5663 5663 5663 5664 5664 5665 5665 5666 5667 5667 5668 5668 5668 5668 5668 5669 5669 5670 5670 5671 5671 5672 5673
5646 5646 5647 5647 5648 5648 5648 5648 5648 5649 5649 5649 5650 5650 5650 5650 5651 5651 5651 5652 5652 5652 5653 5653 5653 5654 5654 5654 5655 5655 5656 5656 5657 5657 5657 5658 5658 5658 5659 5659 5660 5660 5660 5660 5660 5661 5661 5661 5662 5662 5662 5663 5663 5664 5664 5665 5666 5666 5666 5667 5667 5667 5668 5668 5668 5669 5670 5670 5671
5644 5645 5645 5646 5646 5647 5647 5647 5648 5648 5648 5648 5649 5649 5649 5650 5650 5650 5650 5651 5651 5651 5652 5652 5652 5653 5653 5653 5654 5654 5654 5655 5655 5655 5656 5656 5657 5657 5657 5658 5658 5658 5659 5659 5659 5659 5660 5660 5660 5660 5661 5661 5661 5662 5662 5663 5663 5664 5665 5665 5665 5666 5666 5667 5667 5668 5668 5668 5669
5643 5643 5644 5644 5645 5645 5646 5646 5647 5647 5647 5648 5648 5648 5648 5649 5649 5649 5649 5650 5650 5650 5651 5651 5651 5652 5652 5652 5653 5653 5653 5654 5654 5654 5655 5655 5655 5656 5656 5657 5657 5657 5657 5658 5658 5658 5658 5658 5659 5659 5659 5659 5659 5660 5660 5661 5662 5662 5663 5663 5664 5664 5664 5665 5665 5666 5666 5666 5667
5641 5642 5643 5643 5643 5644 5645 5645 5646 5646 5646 5647 5647 5647 5648 5648 5648 5648 5649 5649 5649 5649 5650 5650 5650 5651 5651 5651 5652 5652 5652 5653 5653 5653 5654 5654 5654 5655 5655 5655 5656 5656 5656 5656 5656 5657 5657 5657 5657 5658 5658 5658 5658 5658 5659 5659 5660 5660 5661 5661 5662 5663 5663 5663 5663 5664 5664 5664 5665
5640 5641 5641 5642 5642 5643 5643 5644 5644 5645 5645 5646 5646 5646 5647 5647 5647 5648 5648 5648 5648 5648 5649 5649 5649 5650 5650 5650 5651 5651 5652 5652 5652 5653 5653 5653 5653 5654 5654 5654 5654 5654 5655 5655 5655 5655 5656 5656 5656 5656 5656 5657 5657 5657 5658 5658 5658 5658 5659 5659 5660 5660 5661 5661 5662 5662 5662 5663 5663
5639 5639 5640 5640 5641 5642 5642 5643 5643 5644 5644 5644 5645 5645 5646 5646 5646 5647 5647 5647 5647 5648 5648 5648 5648 5649 5649 5650 5650 5650 5651 5651 5651 5652 5652 5652 5653 5653 5653 5653 5653 5653 5653 5653 5654 5654 5654 5654 5654 5654 5655 5655 5655 5656 5656 5656 5656 5657 5657 5657 5658 5658 5658 5659 5660 5660 5660 5660 5660
5638 5638 5638 5639 5640 5640 5641 5641 5642 5643 5643 5643 5644 5644 5644 5645 5645 5645 5646 5646 5646 5647 5647 5647 5648 5648 5648 5648 5649 5649 5650 5650 5650 5650 5650 5651 5651 5651 5651 5652 5652 5652 5652 5652 5653 5653 5653 5653 5653 5653 5653 5653 5654 5654 5654 5654 5654 5655 5655 5655 5655 5656 5656 5657 5657 5657 5657 5658 5658
5636 5637 5638 5638 5638 5639 5639 5640 5640 5641 5642 5642 5642 5643 5643 5643 5643 5644 5644 5644 5645 5645 5646 5646 5646 5647 5647 5647 5648 5648 5648 5648 5649 5649 5649 5649 5649 5650 5650 5650 5650 5651 5651 5651 5651 5652 5652 5652 5652 5652 5652 5652 5652 5652 5653 5653 5653 5653 5653 5653 5653 5653 5654 5654 5654 5654 5655 5655 5656
5635 5636 5636 5637 5637 5638 5638 5638 5639 5640 5640 5640 5641 5641 5641 5642 5642 5642 5643 5643 5643 5644 5644 5644 5645 5645 5645 5646 5646 5646 5647 5647 5647 5647 5648 5648 5648 5648 5648 5649 5649 5649 5650 5650 5650 5650 5650 5650 5651 5651 5651 5651 5651 5651 5651 5651 5651 5651 5651 5651 5652 5652 5652 5653 5653 5653 5654 5654 5655
5634 5634 5635 5635 5636 5636 5637 5637 5638 5638 5638 5639 5639 5639 5639 5640 5640 5640 5641 5641 5642 5642 5642 5643 5643 5643 5644 5644 5644 5645 5645 5645 5645 5646 5646 5646 5647 5647 5647 5648 5648 5648 5648 5649 5649 5649 5649 5649 5649 5649 5649 5649 5649 5649 5649 5649 5649 5649 5649 5650 5650 5651 5652 5652 5653 5653 5653 5654 5654
5633 5633 5633 5634 5634 5635 5635 5636 5636 5637 5637 5637 5638 5638 5638 5638 5638 5639 5639 5640 5640 5640 5641 5641 5641 5642 5642 5643 5643 5643 5643 5643 5644 5644 5644 5645 5645 5646 5646 5646 5647 5647 5647 5648 5648 5648 5647 5647 5647 5647 5647 5647 5647 5647 5647 5647 5647 5648 5648 5649 5649 5650 5650 5651 5651 5651 5651 5652 5652
5632 5632 5632 5633 5633 5633 5634 5634 5635 5635 5635 5636 5636 5636 5636 5637 5637 5638 5638 5638 5639 5639 5639 5640 5640 5640 5641 5641 5641 5642 5642 5642 5642 5643 5643 5643 5644 5644 5645 5645 5646 5646 5646 5646 5646 5646 5645 5645 5645 5645 5645 5645 5645 5645 5645 5645 5646 5647 5647 5648 5648 5648 5648 5649 5649 5649 5649 5649 5649
5631 5631 5631 5631 5632 5632 5632 5633 5633 5633 5634 5634 5634 5635 5635 5635 5636 5636 5637 5637 5637 5638 5638 5638 5638 5639 5639 5639 5640 5640 5640 5641 5641 5641 5642 5643 5643 5644 5644 5645 5645 5645 5644 5644 5644 5644 5643 5643 5643 5643 5643 5643 5643 5643 5644 5644 5645 5646 5646 5647 5647 5647 5647 5647 5647 5647 5647 5646 5646
5629 5630 5630 5630 5630 5630 5631 5631 5631 5632 5632 5633 5633 5633 5633 5634 5634 5635 5635 5636 5636 5636 5637 5637 5637 5638 5638 5638 5638 5638 5639 5639 5640 5641 5641 5642 5643 5643 5644 5644 5643 5643 5643 5643 5642 5642 5642 5642 5642 5642 5642 5642 5642 5643 5643 5644 5644 5645 5645 5645 5645 5645 5645 5645 5644 5644 5644 5644 5644
5628 5628 5629 5629 5629 5629 5629 5629 5630 5630 5631 5631 5631 5631 5632 5632 5633 5633 5633 5634 5635 5635 5636 5636 5636 5636 5637 5637 5638 5638 5638 5639 5640 5640 5640 5641 5641 5642 5642 5642 5642 5641 5641 5641 5641 5641 5640 5640 5640 5640 5641 5641 5641 5642 5643 5643 5643 5643 5643 5643 5643 5643 5643 5643 5642 5642 5642 5642 5642
5627 5627 5627 5628 5628 5628 5628 5628 5628 5629 5629 5629 5630 5630 5630 5631 5631 5632 5632 5633 5633 5634 5634 5635 5635 5635 5636 5636 5637 5638 5638 5638 5638 5639 5639 5639 5639 5640 5640 5640 5640 5640 5639 5639 5639 5639 5639 5639 5639 5639 5640 5640 5640 5641 5641 5641 5641 5641 5641 5641 5641 5641 5640 5640 5640 5640 5639 5639 5639
5624 5625 5625 5626 5626 5626 5627 5627 5627 5627 5628 5628 5628 5628 5629 5629 5630 5630 5631 5632 5632 5633 5633 5633 5634 5634 5635 5635 5636 5636 5636 5637 5637 5637 5637 5637 5637 5638 5638 5638 5638 5638 5638 5638 5638 5638 5638 5638 5638 5638 5638 5639 5639 5639 5639 5639 5639 5639 5639 5639 5639 5638 5638 5638 5638 5638 5638 5637 5637
5623 5623 5623 5623 5624 5624 5625 5625 5626 5626 5626 5626 5627 5627 5627 5628 5628 5629 5630 5631 5631 5632 5632 5632 5633 5633 5633 5634 5634 5634 5634 5634 5634 5635 5635 5635 5635 5636 5636 5636 5636 5636 5635 5635 5635 5635 5635 5635 5636 5636 5636 5637 5637 5637 5637 5637 5637 5637 5637 5637 5637 5637 5637 5636 5636 5636 5635 5635 5635
5621 5621 5622 5622 5622 5623 5623 5623 5624 5624 5624 5624 5625 5625 5626 5627 5628 5628 5629 5630 5630 5631 5631 5631 5631 5631 5631 5632 5632 5632 5632 5632 5632 5632 5633 5633 5633 5633 5633 5634 5634 5633 5633 5632 5632 5632 5632 5633 5633 5633 5633 5633 5633 5633 5633 5634 5634 5634 5634 5634 5634 5634 5634 5634 5633 5633 5633 5633 5632
5619 5620 5620 5621 5621 5621 5621 5622 5622 5622 5623 5623 5623 5624 5625 5626 5627 5628 5628 5629 5629 5629 5629 5629 5629 5629 5629 5630 5630 5630 5630 5630 5629 5630 5630 5630 5630 5630 5631 5631 5631 5630 5630 5629 5629 5629 5629 5630 5630 5630 5630 5630 5630 5630 5630 5631 5631 5631 5631 5632 5632 5631 5631 5631 5630 5630 5630 5630 5629